[[{"header":{"parameterUnit":"m.s-1","parameterCategory":1,"la1":30.2991,"la2":30.254,"lo1":-89.0895,"lo2":-89.0444,"dy":0.0017,"dx":0.0017,"nx":28,"ny":28,"refTime":"2023-08-31T09:00:00:Z","depth":0,"parameterNumber":2,"parameterNumberName":"U-component_of_WINDS"},"data":[0,0,0,0,0,0,0,0,0,0,0,0,0,0,0,0,0,0,0,0,0,0,0,0,0,0,0,0,0,0,0,0,0,0,0,0,0,0,0,0,0,0,0,0,0,0,0,0,0,0,0,0,0,0,0,0,0,0,-1.3393,-1.3393,0,-1.3311,-1.331,-1.331,-1.3236,-1.3235,-1.3234,-1.3233,-1.315,-1.3149,-1.3147,0,0,0,0,0,0,0,0,0,0,0,0,0,-1.3486,-1.3485,-1.3394,-1.3392,-1.3391,-1.3312,-1.331,-1.3309,-1.3236,-1.3235,-1.3234,-1.3233,-1.315,-1.3149,-1.3147,0,0,0,0,0,0,0,0,0,0,0,0,0,-1.343,-1.3485,-1.3394,-1.3345,-1.334,-1.3312,-1.331,-1.3309,-1.3236,-1.3235,-1.3233,-1.3232,-1.3151,-1.3149,-1.3147,-1.3161,0,0,-1.314,-1.314,0,0,0,0,0,0,0,0,-1.3433,-1.3426,-1.3353,-1.3348,-1.3343,-1.3282,-1.3313,-1.3259,-1.3236,-1.3275,-1.3233,-1.3231,-1.3195,-1.3189,-1.3177,-1.3157,-1.3153,-1.314,-1.3139,-1.3138,-1.3138,0,0,0,0,0,0,0,-1.3437,-1.3429,-1.3361,-1.3352,-1.3346,-1.3327,-1.3318,-1.3302,-1.3244,-1.3272,-1.3266,-1.3258,-1.3192,-1.3179,-1.3174,-1.3152,-1.314,-1.3138,-1.3137,-1.3136,-1.3137,-1.3138,0,0,0,0,0,0,-1.3448,-1.3433,-1.3364,-1.3359,-1.3385,-1.3327,-1.3316,-1.3303,-1.3244,-1.3233,-1.3259,-1.3254,-1.3183,-1.3177,-1.3171,-1.3181,-1.3138,-1.3136,-1.3135,-1.3135,-1.3137,-1.3138,0,0,0,0,0,0,-1.3451,-1.3443,-1.3367,-1.3394,-1.3383,-1.3327,-1.3313,-1.3302,-1.3289,-1.3234,-1.3223,-1.3256,-1.3182,-1.3174,-1.3163,-1.3178,-1.3135,-1.3133,-1.3134,-1.3136,-1.3138,-1.3204,0,0,0,0,0,0,-1.3454,-1.3444,-1.3449,-1.3395,-1.3382,-1.3361,-1.3313,-1.3301,-1.3286,-1.3279,-1.3229,-1.3219,-1.318,-1.3167,-1.3161,-1.3174,-1.3132,-1.3132,-1.3135,-1.3137,-1.32,-1.3208,-1.3214,0,0,0,0,0,-1.3457,-1.3471,-1.3449,-1.3441,-1.3387,-1.3362,-1.3354,-1.3309,-1.3287,-1.3291,-1.3255,-1.3221,-1.3177,-1.3166,-1.3159,-1.3172,-1.3131,-1.3134,-1.3137,-1.3197,-1.3206,-1.3214,0,0,0,0,0,0,-1.3529,-1.3463,-1.3438,-1.3435,-1.3405,-1.3349,-1.3353,-1.3321,-1.3296,-1.3291,-1.3236,-1.3225,-1.322,-1.3195,-1.3184,-1.3181,-1.3149,-1.3151,-1.3197,-1.3206,-1.3213,-1.3218,-1.313,0,0,0,0,0,-1.3544,-1.3529,-1.3473,-1.3476,-1.3461,-1.341,-1.3397,-1.3365,-1.3331,-1.3318,-1.3281,-1.325,-1.3229,-1.3216,-1.3194,-1.3196,-1.3183,-1.3201,-1.3209,-1.3215,-1.3216,-1.3214,-1.3221,-1.3148,-1.3148,-1.3147,0,0,-1.3576,-1.3538,-1.3532,-1.3489,-1.3461,-1.3447,-1.34,-1.3386,-1.3375,-1.3316,-1.3303,-1.3275,-1.3236,-1.3231,-1.3228,-1.321,-1.3234,-1.3218,-1.3224,-1.3222,-1.3217,-1.3224,-1.3231,-1.3149,-1.3149,-1.3149,0,0,-1.3626,-1.3597,-1.3595,-1.3568,-1.3526,-1.3491,-1.3491,-1.344,-1.3419,-1.3405,-1.336,-1.3346,-1.3312,-1.3285,-1.3267,-1.3306,-1.3273,-1.3301,-1.3337,-1.3336,-1.3341,-1.3346,-1.3358,-1.3363,-1.3303,-1.3303,-1.3303,0,-1.3671,-1.3646,-1.3598,-1.3587,-1.3569,-1.3514,-1.3512,-1.3488,-1.3442,-1.343,-1.3412,-1.3366,-1.3336,-1.3324,-1.3333,-1.3321,-1.3318,-1.3305,-1.3344,-1.3349,-1.3352,-1.3363,-1.3368,-1.3306,-1.3306,-1.3306,-1.3305,0,-1.3703,-1.3687,-1.369,-1.3645,-1.3628,-1.3622,-1.3572,-1.356,-1.3529,-1.3497,-1.3482,-1.3445,-1.3413,-1.3408,-1.3379,-1.3391,-1.3381,-1.3355,-1.3321,-1.3364,-1.3373,-1.3377,-1.3311,-1.331,-1.3309,-1.3308,0,0,-1.3795,-1.3723,-1.3725,-1.3703,-1.3653,-1.364,-1.3631,-1.3599,-1.3589,-1.3559,-1.3549,-1.352,-1.3495,-1.3475,-1.3442,-1.344,-1.3471,-1.3413,-1.3411,-1.3424,-1.3481,-1.35,-1.3506,-1.345,-1.345,-1.3451,-1.3483,0,-1.3835,-1.3814,-1.377,-1.3764,-1.3747,-1.3695,-1.3687,-1.3655,-1.3624,-1.3606,-1.3572,-1.3552,-1.3521,-1.3508,-1.3505,-1.3469,-1.3482,-1.3466,-1.3439,-1.3438,-1.3448,-1.3511,-1.3531,-1.3564,-1.3487,-1.3488,-1.3488,0,-1.3879,-1.3851,-1.3843,-1.3792,-1.3783,-1.3776,-1.3743,-1.3727,-1.3689,-1.3667,-1.3644,-1.3607,-1.3594,-1.3565,-1.3545,-1.3535,-1.3521,-1.3502,-1.3502,-1.3497,-1.3465,-1.3505,-1.3574,-1.3578,-1.3494,-1.3493,-1.3493,0,-1.3945,-1.3906,-1.3894,-1.3878,-1.3819,-1.3815,-1.3791,-1.3752,-1.3735,-1.3706,-1.3695,-1.3665,-1.3649,-1.3627,-1.3583,-1.3566,-1.3567,-1.3535,-1.3548,-1.3549,-1.3549,-1.3549,-1.3614,-1.3544,-1.3544,-1.3543,-1.3543,0,-1.3994,-1.399,-1.3923,-1.3916,-1.391,-1.386,-1.3855,-1.3826,-1.3791,-1.3778,-1.3732,-1.372,-1.3663,-1.3645,-1.3611,-1.3598,-1.3592,-1.3573,-1.3563,-1.3576,-1.3578,-1.3565,-1.3561,-1.3545,-1.3544,-1.3544,-1.3544,0,-1.4066,-1.4021,-1.4005,-1.3951,-1.3937,-1.3935,-1.3887,-1.3878,-1.3845,-1.3828,-1.3821,-1.3769,-1.3744,-1.3699,-1.3662,-1.3639,-1.3633,-1.3618,-1.3646,-1.3639,-1.3654,-1.3653,-1.3712,-1.3716,-1.3645,-1.3645,-1.3646,0,-1.4099,-1.4095,-1.4039,-1.4026,-1.4003,-1.3983,-1.3966,-1.3916,-1.3899,-1.3856,-1.3852,-1.3824,-1.3798,-1.3762,-1.372,-1.3691,-1.3674,-1.3697,-1.3669,-1.3681,-1.3672,-1.3672,-1.3671,-1.3703,-1.3704,-1.3704,-1.3705,0,-1.4162,-1.414,-1.4116,-1.4084,-1.4064,-1.4037,-1.4008,-1.4,-1.3943,-1.3927,-1.3901,-1.3881,-1.3843,-1.3815,-1.378,-1.3754,-1.372,-1.3714,-1.3715,-1.3727,-1.3742,-1.3732,-1.366,-1.3713,-1.3712,-1.3711,-1.3711,-1.3711,-1.4214,-1.4207,-1.4166,-1.4141,-1.4113,-1.4087,-1.4075,-1.404,-1.4017,-1.3981,-1.3954,-1.3929,-1.3891,-1.384,-1.3816,-1.3797,-1.378,-1.3783,-1.3783,-1.3784,-1.3788,-1.3747,-1.379,-1.379,-1.379,-1.379,-1.3789,0,-1.4273,-1.4244,-1.4221,-1.4181,-1.4161,-1.413,-1.4095,-1.4081,-1.406,-1.4027,-1.4002,-1.3972,-1.3944,-1.3901,-1.3869,-1.3862,-1.3845,-1.3855,-1.3854,-1.3849,-1.3805,-1.3806,-1.3869,-1.3869,-1.3869,-1.3869,-1.3869,-1.3869,-1.4301,-1.4287,-1.426,-1.4231,-1.4202,-1.4178,-1.416,-1.4135,-1.4108,-1.4076,-1.4052,-1.4024,-1.3986,-1.3952,-1.3925,-1.3913,-1.3902,-1.3917,-1.39,-1.3859,-1.3852,-1.3845,-1.3846,-1.3916,-1.3916,-1.3945,-1.3945,-1.3945]},{"header":{"parameterUnit":"m.s-1","parameterCategory":1,"la1":30.2991,"la2":30.254,"lo1":-89.0895,"lo2":-89.0444,"dy":0.0017,"dx":0.0017,"nx":28,"ny":28,"refTime":"2023-08-31T09:00:00:Z","depth":0,"parameterNumber":3,"parameterNumberName":"V-component_of_WINDS"},"data":[0,0,0,0,0,0,0,0,0,0,0,0,0,0,0,0,0,0,0,0,0,0,0,0,0,0,0,0,0,0,0,0,0,0,0,0,0,0,0,0,0,0,0,0,0,0,0,0,0,0,0,0,0,0,0,0,0,0,-0.887,-0.8869,0,-0.8736,-0.8735,-0.8733,-0.8729,-0.8731,-0.8732,-0.8734,-0.8584,-0.8579,-0.8574,0,0,0,0,0,0,0,0,0,0,0,0,0,-0.911,-0.9106,-0.887,-0.8869,-0.8867,-0.8736,-0.8734,-0.8733,-0.8729,-0.8731,-0.8733,-0.8735,-0.8586,-0.858,-0.8573,0,0,0,0,0,0,0,0,0,0,0,0,0,-0.8994,-0.9105,-0.8871,-0.885,-0.8846,-0.8737,-0.8734,-0.8732,-0.8728,-0.8731,-0.8733,-0.8736,-0.8588,-0.858,-0.8572,-0.8471,0,0,-0.8547,-0.8543,0,0,0,0,0,0,0,0,-0.9,-0.8985,-0.8854,-0.8851,-0.8847,-0.8752,-0.8764,-0.8644,-0.8728,-0.8773,-0.8734,-0.8737,-0.8637,-0.8625,-0.8594,-0.8464,-0.8457,-0.8546,-0.8541,-0.8537,-0.8535,0,0,0,0,0,0,0,-0.9009,-0.8991,-0.8817,-0.8852,-0.8848,-0.8843,-0.8829,-0.8741,-0.8692,-0.8769,-0.8769,-0.8753,-0.8636,-0.8602,-0.8591,-0.8455,-0.8546,-0.8539,-0.8534,-0.853,-0.823,-0.8227,0,0,0,0,0,0,-0.9023,-0.8998,-0.8821,-0.8813,-0.8932,-0.8836,-0.8821,-0.878,-0.8693,-0.8683,-0.8751,-0.8754,-0.8615,-0.86,-0.8585,-0.8457,-0.8537,-0.853,-0.8525,-0.8233,-0.8229,-0.8226,0,0,0,0,0,0,-0.9028,-0.9007,-0.8826,-0.8905,-0.8882,-0.883,-0.8783,-0.8776,-0.8742,-0.868,-0.867,-0.8727,-0.8616,-0.8597,-0.8499,-0.8452,-0.8526,-0.8518,-0.8236,-0.8231,-0.8227,-0.8203,0,0,0,0,0,0,-0.9035,-0.9009,-0.8973,-0.8904,-0.8878,-0.8746,-0.8781,-0.8771,-0.8729,-0.8731,-0.8654,-0.8644,-0.8617,-0.8511,-0.8491,-0.8442,-0.8512,-0.824,-0.8234,-0.8229,-0.8208,-0.8198,-0.819,0,0,0,0,0,-0.9043,-0.8969,-0.8971,-0.895,-0.8832,-0.8744,-0.8728,-0.8702,-0.8726,-0.8687,-0.8646,-0.8646,-0.8462,-0.8502,-0.8478,-0.8426,-0.8243,-0.8236,-0.8229,-0.8212,-0.82,-0.819,0,0,0,0,0,0,-0.903,-0.896,-0.8961,-0.8864,-0.881,-0.8743,-0.8693,-0.8691,-0.8626,-0.863,-0.8597,-0.858,-0.8481,-0.8444,-0.849,-0.8321,-0.8354,-0.8343,-0.8349,-0.8337,-0.8329,-0.8338,-0.8505,0,0,0,0,0,-0.9017,-0.8955,-0.8895,-0.8815,-0.8788,-0.8746,-0.8706,-0.8691,-0.8632,-0.8608,-0.8561,-0.85,-0.8428,-0.8381,-0.8312,-0.8204,-0.8184,-0.8156,-0.8147,-0.814,-0.8129,-0.8065,-0.805,-0.8204,-0.8204,-0.8204,0,0,-0.8986,-0.894,-0.8903,-0.8811,-0.8768,-0.87,-0.8726,-0.8654,-0.8602,-0.8596,-0.8501,-0.8464,-0.8394,-0.8289,-0.8241,-0.8255,-0.8083,-0.8132,-0.8127,-0.8119,-0.8056,-0.8042,-0.8029,-0.8199,-0.82,-0.8201,0,0,-0.8896,-0.8857,-0.8785,-0.8741,-0.8676,-0.8648,-0.8631,-0.8564,-0.854,-0.8446,-0.8439,-0.8374,-0.8252,-0.8202,-0.816,-0.805,-0.8045,-0.8028,-0.798,-0.7918,-0.7906,-0.7895,-0.7851,-0.7836,-0.8018,-0.8018,-0.8018,0,-0.8865,-0.8767,-0.8746,-0.8674,-0.8631,-0.8628,-0.855,-0.8508,-0.8422,-0.8391,-0.841,-0.8255,-0.8208,-0.809,-0.8063,-0.8031,-0.8006,-0.8035,-0.791,-0.7899,-0.7888,-0.7846,-0.783,-0.8016,-0.8016,-0.8016,-0.8016,0,-0.873,-0.8661,-0.861,-0.8531,-0.8483,-0.8408,-0.8372,-0.8326,-0.8315,-0.8283,-0.8184,-0.8128,-0.8045,-0.8017,-0.8004,-0.7895,-0.7906,-0.7918,-0.795,-0.7872,-0.7831,-0.7815,-0.8013,-0.8014,-0.8014,-0.8015,0,0,-0.8625,-0.8537,-0.8517,-0.848,-0.8408,-0.8352,-0.8276,-0.8199,-0.8158,-0.8099,-0.803,-0.7927,-0.7938,-0.789,-0.7872,-0.7818,-0.7728,-0.7835,-0.7833,-0.7814,-0.76,-0.7588,-0.757,-0.7727,-0.7724,-0.7722,-0.7604,0,-0.8524,-0.8392,-0.8371,-0.8253,-0.8187,-0.8182,-0.8115,-0.8061,-0.8029,-0.7965,-0.7929,-0.7855,-0.7876,-0.7847,-0.7794,-0.7751,-0.7684,-0.776,-0.7657,-0.7654,-0.7672,-0.755,-0.7538,-0.743,-0.7589,-0.7586,-0.7584,0,-0.8387,-0.8328,-0.8205,-0.814,-0.8111,-0.8052,-0.7978,-0.7919,-0.7856,-0.7836,-0.7784,-0.7771,-0.7687,-0.7726,-0.7606,-0.7657,-0.7614,-0.7587,-0.7582,-0.7568,-0.7612,-0.7528,-0.7395,-0.7377,-0.756,-0.7562,-0.7563,0,-0.8318,-0.8207,-0.8118,-0.8087,-0.801,-0.7968,-0.7933,-0.7873,-0.7827,-0.7762,-0.7731,-0.7656,-0.7613,-0.7552,-0.7518,-0.755,-0.7399,-0.7436,-0.7376,-0.7376,-0.7341,-0.7343,-0.7194,-0.732,-0.7321,-0.7321,-0.7321,0,-0.8204,-0.8128,-0.8086,-0.803,-0.7943,-0.7918,-0.7831,-0.7796,-0.7743,-0.7677,-0.7669,-0.7606,-0.7567,-0.7498,-0.747,-0.7373,-0.7354,-0.7332,-0.7325,-0.7331,-0.7333,-0.7299,-0.7304,-0.7317,-0.7318,-0.7319,-0.7319,0,-0.811,-0.808,-0.7982,-0.7918,-0.79,-0.7838,-0.7781,-0.7725,-0.7695,-0.7611,-0.759,-0.754,-0.7458,-0.742,-0.7317,-0.7298,-0.7186,-0.7186,-0.7208,-0.7204,-0.7145,-0.7149,-0.6966,-0.6939,-0.7087,-0.7086,-0.7085,0,-0.8038,-0.7979,-0.791,-0.7868,-0.7833,-0.7764,-0.7718,-0.7691,-0.7642,-0.7566,-0.7517,-0.7436,-0.7369,-0.7237,-0.7189,-0.7109,-0.7104,-0.7046,-0.7091,-0.7098,-0.7097,-0.71,-0.7091,-0.7035,-0.7034,-0.7033,-0.7032,0,-0.7911,-0.7898,-0.7835,-0.7765,-0.7712,-0.7654,-0.7598,-0.7562,-0.7525,-0.747,-0.7389,-0.7337,-0.7234,-0.715,-0.7068,-0.7027,-0.702,-0.7019,-0.7,-0.7002,-0.7016,-0.7003,-0.7181,-0.7022,-0.7023,-0.7024,-0.7024,-0.7024,-0.7822,-0.7768,-0.7711,-0.7639,-0.7595,-0.7542,-0.7486,-0.745,-0.7382,-0.7298,-0.7285,-0.7196,-0.7132,-0.7021,-0.6977,-0.6904,-0.6917,-0.6891,-0.6883,-0.6876,-0.687,-0.7032,-0.689,-0.689,-0.689,-0.689,-0.689,0,-0.769,-0.7654,-0.7589,-0.7511,-0.7454,-0.746,-0.7397,-0.7347,-0.727,-0.7213,-0.7148,-0.7052,-0.6971,-0.6918,-0.6835,-0.6786,-0.6781,-0.6765,-0.6766,-0.6755,-0.6866,-0.6889,-0.677,-0.677,-0.677,-0.6771,-0.6771,-0.6771,-0.7615,-0.7523,-0.7504,-0.7389,-0.7352,-0.7268,-0.7231,-0.7181,-0.7135,-0.7029,-0.6964,-0.6931,-0.6873,-0.6787,-0.6711,-0.6697,-0.6665,-0.6648,-0.6633,-0.6736,-0.6748,-0.676,-0.6781,-0.6642,-0.6642,-0.6528,-0.6527,-0.6526]}]]